Location: T�bingen+AIT
(48.5342°N, 9.0700°E)
Time: 22:29:02
(UTC+01:00)

Cosmos 2150 Rocket - Pass Details

Date: 14 September 2017
Orbit: 748 x 809 km, 74.0° (Epoch: 19 November)

Event Time Altitude Azimuth Distance (km) Brightness Sun altitude
Rises 20:49:16 0° 340° (NNW) 3,238 7.9 -12.3°
Reaches altitude 10° 20:51:44 10° 346° (NNW) 2,316 7.0 -12.7°
Maximum altitude 20:56:48 47° 61° (ENE) 1,026 4.4 -13.5°
Enters shadow 21:00:18 20° 127° (SE) 1,766 5.3 -14.0°
